User: anonymous   Login
Location: Unspecified
(0.0000°N, 0.0000°E)
Time: 02:12:17
(UTC+00:00)
Language:

Meteor 2-2 - Orbit

View from above orbital plane
View from above orbital plane
View from above satellite
View from above satellite

Ground track
Ground track

The orbit data is extracted from the following two-line orbital elements,

1  9661U 77002A   18016.89379635 +.00000006 +00000-0 -40941-5 0  9994
2  9661 081.2657 167.3089 0009909 328.4491 031.6081 14.03567606099156
Epoch (UTC): 16 January 2018 21:27:04
Eccentricity: 0.0009909
inclination: 81.2657°
perigee height: 874 km
apogee height: 888 km
right ascension of ascending node: 167.3089°
argument of perigee: 328.4491°
revolutions per day: 14.03567606
mean anomaly at epoch: 31.6081°
orbit number at epoch: 9915

The dashed part of the orbit path shows where the satellite is in the earth's shadow,  

DLR